TIME,DELAY(SENSOR),PRES,OXYGEN,RAWTEMP,T(OPTODE),TCPHASE,FLUOR,BETA(BETA700),BETA(BETA412),BETA(BETA440),CDOM,C(CSC),ED(ED412.40),ED(ED444.00),ED(ED489.70),ED(ED554.30),LU(LU411.80),LU(LU443.40),LU(LU489.60),LU(LU554.10),COMP,TILTX,TILTY,CHECK
1350704170,5806,837.2000122070312000,43.8298416137695300,662.5671997070312000,4.5434188842773440,54.4624481201171900,53,101,87,79,81,15191,2147756178,2147424338,2148007652,2147874944,2147640640,2147060900,2148261330,2147196480,3249,5,13,40894
1350707766,5812,887.2899780273438000,46.0630111694335940,666.5156250000000000,4.4132328033447270,54.1818695068359400,53,101,88,79,81,15194,2147753947,2147421522,2148009069,2147874057,2147643968,2147059035,2148253906,2147196004,309,5,13,59043
1350711366,5809,899.6599731445312000,46.6880798339843750,668.7252807617188000,4.3402981758117680,54.1214485168457000,53,103,90,79,82,15191,2147755785,2147420086,2148009572,2147872850,2147639606,2147060041,2148262939,2147197120,463,5,13,49231
1350714966,5808,942.0599975585938000,47.2246284484863300,669.6411132812500000,4.3100528717041020,54.0537796020507800,52,99,86,78,80,15190,2147757302,2147422208,2148011876,2147870637,2147641938,2147057426,2148255881,2147199451,356,5,13,61014
1350718566,5808,940.3800048828125000,46.3981513977050800,669.0678100585938000,4.3289852142333980,54.1618614196777340,52,100,87,79,80,15190,2147755858,2147422601,2148008539,2147874688,2147638052,2147058102,2148260324,2147198390,168,5,13,60001
1350722166,5811,960.9299926757812000,45.7051200866699200,667.2548828125000000,4.3888359069824220,54.2399902343750000,53,101,85,78,82,15190,2147757138,2147420050,2148011318,2147872658,2147641526,2147057526,2148262656,2147200868,95,5,13,36513
1350725766,5808,986.6199951171875000,46.1734504699707000,668.8508300781250000,4.3361511230468750,54.1912803649902340,53,109,86,78,82,15189,2147756836,2147425435,2148008585,2147875465,2147644818,2147061065,2148258724,2147198802,3190,4,13,33474
1350729366,5806,983.0399780273438000,45.7524108886718750,667.8629150390625000,4.3687710762023930,54.2406082153320300,52,102,89,78,82,15187,2147756214,2147423350,2148010185,2147874093,2147643072,2147059437,2148259593,2147198930,3530,4,13,7635
1350732966,5809,972.2899780273438000,46.1103210449218750,669.9929809570312000,4.2984280586242680,54.2154197692871100,53,100,86,79,81,15185,2147757942,2147420763,2148013156,2147874020,2147639753,2147057225,2148259456,2147199954,330,4,13,800
1350736566,5809,979.7700195312500000,46.5750312805175800,670.7747802734375000,4.2725977897644040,54.1593894958496100,53,97,88,79,81,15185,2147756260,2147423104,2148009536,2147873325,2147646080,2147060233,2148263469,2147199241,5,5,13,61154
1350740166,5807,971.5100097656250000,47.7769699096679700,672.7813110351562000,4.2062759399414060,54.0146217346191400,53,101,87,80,80,15186,2147757696,2147425517,2148007725,2147871579,2147642368,2147059428,2148258797,2147201508,3400,4,13,37952
1350743766,5809,975.8599853515625000,47.3516616821289060,671.5944213867188000,4.2455139160156250,54.0621109008789060,53,97,91,81,80,15185,2147760548,2147422829,2148007753,2147871716,2147641718,2147061531,2148262107,2147199990,65,5,13,39376
1350747366,5807,970.7700195312500000,47.1605987548828100,672.3698730468750000,4.2198767662048340,54.0947113037109400,52,99,88,79,82,15189,2147759204,2147422326,2148012397,2147872411,2147640521,2147059949,2148260992,2147197833,159,4,13,9032
1350750966,5806,969.6599731445312000,47.4979095458984400,673.9423217773438000,4.1678791046142580,54.0719604492187500,53,98,88,79,82,15186,2147758838,2147420105,2148008914,2147874038,2147643565,2147063104,2148261732,2147196461,337,5,13,58510
1350754566,5808,965.7600097656250000,48.3862800598144500,674.8726196289062000,4.1371040344238280,53.9558296203613300,53,100,87,78,80,15187,2147754057,2147421302,2148011739,2147873536,2147646116,2147056576,2148263634,2147194678,3552,4,13,7808
1350758166,5812,983.2399902343750000,48.6633300781250000,674.4000854492188000,4.1527371406555180,53.9087181091308600,52,99,89,80,82,15186,2147756534,2147421988,2148011017,2147874532,2147645714,2147059401,2148262217,2147196827,247,5,13,33079
1350761766,5808,980.4099731445312000,48.3664093017578100,673.9561157226562000,4.1674251556396480,53.9497489929199200,53,99,87,78,81,15189,2147759277,2147422784,2148008301,2147872054,2147644891,2147063899,2148259757,2147199524,356,5,13,10510
1350765366,5810,986.5599975585938000,47.5698814392089840,671.8557739257812000,4.2368741035461430,54.0340309143066400,53,98,91,79,81,15193,2147759826,2147423021,2148009746,2147871506,2147644845,2147063286,2148260050,2147199424,476,5,13,42396
1350768966,5806,989.4199829101562000,47.0249900817871100,671.0302124023438000,4.2641601562500000,54.0974311828613300,53,99,90,79,80,15190,2147758683,2147419556,2148008320,2147871040,2147641865,2147063488,2148265993,2147197997,3596,4,14,33745
1350772566,5813,986.1300048828125000,46.7554206848144500,670.9130249023438000,4.2680320739746090,54.1379585266113300,53,96,86,79,80,15189,2147754998,2147424557,2148010669,2147872612,2147645568,2147060489,2148264649,2147197622,23,5,13,10474
1350776166,5806,983.0800170898438000,47.2414588928222660,671.0183105468750000,4.2645530700683590,54.0713005065918000,53,100,87,79,80,15188,2147754788,2147422500,2148011565,2147876461,2147643355,2147058806,2148260781,2147199954,98,5,13,55460
1350779766,5810,977.7899780273438000,47.0529212951660160,671.7280273437500000,4.2410979270935060,54.1014289855957000,52,101,90,79,82,15186,2147760045,2147421677,2148011117,2147871963,2147643282,2147060736,2148260690,2147196461,645,4,13,2623
1350783366,5806,976.4600219726562000,47.7570915222168000,672.9470214843750000,4.2007980346679690,54.0205497741699200,52,98,89,79,81,15184,2147756489,2147424164,2148011081,2147871387,2147644315,2147061805,2148261915,2147200914,2722,4,13,30819
1350786966,5809,976.8099975585938000,47.4452400207519500,674.0314941406250000,4.1649298667907715,54.0771102905273440,51,101,88,79,81,15190,2147755629,2147422390,2148010733,2147874797,2147642596,2147062107,2148259684,2147196726,5,5,13,34646
1350790566,5812,978.2700195312500000,47.7365608215332000,674.5969848632812000,4.1462211608886720,54.0446205139160160,52,98,87,78,82,15186,2147756736,2147423680,2148009472,2147874340,2147643574,2147058925,2148266861,2147198116,261,4,13,35646
1350794166,5807,980.2000122070312000,47.6462211608886700,673.9138183593750000,4.1688251495361330,54.0465202331543000,52,99,88,78,81,15185,2147756470,2147420699,2148011209,2147872576,2147641206,2147056283,2148261193,2147194870,137,5,13,56404
1350797766,5806,977.0300292968750000,47.4282493591308600,674.0391235351562000,4.1646790504455570,54.0788993835449200,53,101,84,82,81,15187,2147758336,2147423360,2148011629,2147872832,2147643584,2147060324,2148263085,2147199186,143,4,13,46755
1350801366,5809,977.0700073242188000,47.6859207153320300,674.5317993164062000,4.1483778953552250,54.0459289550781250,51,98,86,79,82,15186,2147753773,2147419392,2148013120,2147873545,2147641179,2147060845,2148261933,2147197805,535,4,13,29804
1350804966,5808,989.6099853515625000,48.0940208435058600,673.3811035156250000,4.1864409446716310,53.9790992736816400,53,101,86,79,82,15187,2147758162,2147420763,2148010395,2147872100,2147643520,2147059117,2148258998,2147202358,2645,4,13,26692
1350808566,5811,996.2199707031250000,47.2339706420898440,670.9047851562500000,4.2683010101318360,54.0663185119628900,53,99,89,79,82,15182,2147754715,2147422244,2148010560,2147872402,2147640832,2147061494,2148259136,2147198153,3569,4,13,16342
1350812166,5808,996.6099853515625000,46.6094207763671900,670.2965698242188000,4.2883992195129395,54.1500892639160160,53,99,88,79,81,15186,2147753993,2147420672,2148009526,2147872914,2147641380,2147061412,2148257280,2147196763,52,5,13,34685
1350815766,5808,994.6199951171875000,46.1297492980957000,670.1182250976562000,4.2942938804626465,54.2170906066894500,53,99,86,78,80,15183,2147753316,2147420507,2148012745,2147870061,2147640320,2147059958,2148263168,2147196598,592,4,13,31020
1350819366,5805,991.5000000000000000,46.0456695556640600,671.1547241210938000,4.2600440979003910,54.2383384704589840,52,100,88,80,82,15179,2147757229,2147420013,2148012032,2147873956,2147639890,2147062363,2148264493,2147198692,155,4,13,28308
1350822966,5809,988.3099975585938000,47.4739112854003900,672.2009277343750000,4.2254638671875000,54.0485305786132800,52,98,86,79,81,15181,2147757366,2147423350,2148010285,2147869906,2147645184,2147061284,2148262902,2147200100,3542,4,13,7493
1350826566,5807,986.6599731445312000,47.1053009033203100,672.4376220703125000,4.2176418304443360,54.1067314147949200,52,98,91,78,81,15173,2147756672,2147420406,2148008795,2147876571,2147641124,2147055296,2148264996,2147197156,3531,4,13,43674
1350830166,5810,989.0599975585938000,47.7400283813476560,673.1447753906250000,4.1942582130432130,54.0256500244140600,53,101,85,78,82,15169,2147755940,2147419894,2148008082,2147873453,2147644598,2147056612,2148261558,2147199661,3368,4,13,60184
1350833766,5807,987.4799804687500000,47.2686386108398440,672.9882812500000000,4.1994299888610840,54.0920181274414060,52,99,86,78,80,15174,2147759890,2147422427,2148010331,2147874313,2147644288,2147056173,2148260617,2147199213,100,4,13,38483
1350837366,5807,982.2100219726562000,47.1528396606445300,673.6987304687500000,4.1759400367736820,54.1114006042480500,52,100,86,79,81,15170,2147758381,2147420324,2148011081,2147874057,2147642624,2147060324,2148264045,2147196562,455,4,13,35136
1350840966,5810,979.0000000000000000,47.8407897949218750,674.5687866210938000,4.1471519470214840,54.0302886962890600,52,101,87,78,82,15172,2147755117,2147420004,2148010788,2147873609,2147641188,2147059593,2148261156,2147196754,313,4,13,53304
1350844566,5810,986.1400146484375000,48.0059204101562500,674.2650756835938000,4.1572017669677730,53.9971809387207000,53,98,83,78,81,15170,2147759433,2147421257,2148012324,2147871058,2147644763,2147056777,2148264832,2147196790,44,5,13,29169
1350848166,5811,991.6599731445312000,47.6197090148925800,673.2003784179688000,4.1924171447753910,54.0396308898925800,53,100,87,78,81,15171,2147755318,2147422848,2148009581,2147872859,2147643830,2147058459,2148264768,2147198811,640,4,13,38233
1350848455,5809,991.3200073242188000,47.5721511840820300,673.0496215820312000,4.1974029541015625,54.0462112426757800,51,101,87,79,83,15188,2147755254,2147424996,2148011044,2147871780,2147643410,2147058358,2148263085,2147202605,3222,5,13,33764
